User: anonymous   Login
Location: Unspecified
(0.0000°N, 0.0000°E)
Time: 22:29:38
(UTC+00:00)
Language:

Tiros 1 - Orbit

View from above orbital plane
View from above orbital plane
View from above satellite
View from above satellite

Ground track
Ground track

The orbit data is extracted from the following two-line orbital elements,

1    29U 60002B   16242.87368763 -.00000054 +00000-0 +23023-4 0  9996
2    29 048.3809 015.8793 0023716 056.7911 303.5270 14.74087833013814
Epoch (UTC): 29 August 2016 20:58:06
Eccentricity: 0.0023716
inclination: 48.3809°
perigee height: 631 km
apogee height: 665 km
right ascension of ascending node: 15.8793°
argument of perigee: 56.7911°
revolutions per day: 14.74087833
mean anomaly at epoch: 303.5270°
orbit number at epoch: 1381

The dashed part of the orbit path shows where the satellite is in the earth's shadow,  

DLR